TimeEST,TemperatureF,Dew PointF,Humidity,Sea Level PressureIn,VisibilityMPH,Wind Direction,Wind SpeedMPH,Gust SpeedMPH,PrecipitationIn,Events,Conditions,WindDirDegrees,DateUTC
12:54 AM,57.9,52.0,81,29.85,4.0,SSW,5.8,16.1,0.05,Rain,Light Rain,210,2012-12-05 05:54:00
1:16 AM,57.2,51.8,82,29.86,7.0,Variable,5.8,-,0.01,Rain,Light Rain,0,2012-12-05 06:16:00
1:44 AM,55.4,51.8,88,29.87,7.0,West,12.7,19.6,0.01,,Overcast,260,2012-12-05 06:44:00
1:54 AM,55.0,51.1,86,29.87,6.0,WSW,13.8,-,0.01,Rain,Light Rain,250,2012-12-05 06:54:00
2:16 AM,51.8,48.2,88,29.89,8.0,WSW,10.4,19.6,0.01,Rain,Light Rain,250,2012-12-05 07:16:00
2:54 AM,48.9,46.0,90,29.93,7.0,West,10.4,18.4,0.04,Rain,Light Rain,270,2012-12-05 07:54:00
3:16 AM,48.2,44.6,87,29.92,9.0,West,6.9,18.4,0.03,Rain,Light Rain,270,2012-12-05 08:16:00
3:54 AM,48.0,45.0,89,29.92,4.0,WNW,5.8,-,0.07,Rain,Light Rain,300,2012-12-05 08:54:00
4:27 AM,46.4,44.6,93,29.92,5.0,West,8.1,-,0.09,Rain,Rain,280,2012-12-05 09:27:00
4:54 AM,46.9,43.0,86,29.93,9.0,West,6.9,-,0.13,Rain,Light Rain,280,2012-12-05 09:54:00
5:54 AM,46.0,42.1,86,29.94,10.0,West,6.9,-,0.01,,Partly Cloudy,260,2012-12-05 10:54:00
6:18 AM,44.6,42.8,93,29.94,10.0,West,8.1,-,N/A,,Mostly Cloudy,270,2012-12-05 11:18:00
6:54 AM,45.0,39.9,82,29.95,10.0,WSW,9.2,-,N/A,,Mostly Cloudy,250,2012-12-05 11:54:00
7:54 AM,44.1,39.0,82,29.96,10.0,WSW,9.2,-,N/A,,Overcast,240,2012-12-05 12:54:00
9:35 AM,44.6,37.4,76,29.98,10.0,West,9.2,-,N/A,,Overcast,270,2012-12-05 14:35:00
9:54 AM,44.1,37.0,76,29.99,10.0,West,8.1,-,N/A,,Overcast,280,2012-12-05 14:54:00
10:04 AM,44.6,37.4,76,29.99,10.0,West,6.9,-,N/A,,Overcast,260,2012-12-05 15:04:00
10:39 AM,44.6,35.6,71,29.99,10.0,NW,6.9,-,N/A,,Overcast,310,2012-12-05 15:39:00
10:54 AM,44.1,35.1,71,29.99,10.0,WNW,15.0,25.3,N/A,,Overcast,300,2012-12-05 15:54:00
11:54 AM,42.1,30.0,62,29.99,10.0,West,17.3,29.9,0.00,,Overcast,280,2012-12-05 16:54:00
12:54 PM,39.9,26.1,58,30.00,10.0,West,18.4,31.1,N/A,,Mostly Cloudy,280,2012-12-05 17:54:00
1:54 PM,37.9,24.1,57,30.02,10.0,West,13.8,24.2,N/A,,Overcast,280,2012-12-05 18:54:00
2:54 PM,37.0,23.0,57,30.04,10.0,WNW,11.5,23.0,N/A,,Overcast,290,2012-12-05 19:54:00
3:54 PM,37.0,21.9,54,30.06,10.0,WNW,8.1,19.6,N/A,,Overcast,300,2012-12-05 20:54:00
4:54 PM,36.0,19.0,50,30.08,10.0,NW,12.7,20.7,N/A,,Overcast,320,2012-12-05 21:54:00
5:54 PM,34.0,18.0,52,30.11,10.0,NW,10.4,19.6,N/A,,Overcast,310,2012-12-05 22:54:00
6:54 PM,33.1,21.0,61,30.14,9.0,NNW,12.7,19.6,0.00,Snow,Light Snow,340,2012-12-05 23:54:00
7:54 PM,30.9,17.1,57,30.17,10.0,NNW,12.7,23.0,0.00,,Overcast,340,2012-12-06 00:54:00
8:54 PM,30.0,12.9,49,30.18,10.0,NNW,11.5,23.0,N/A,,Overcast,330,2012-12-06 01:54:00
9:54 PM,28.9,12.9,51,30.20,10.0,NW,5.8,17.3,N/A,,Overcast,320,2012-12-06 02:54:00
10:54 PM,28.0,12.9,53,30.22,10.0,NW,9.2,23.0,N/A,,Clear,320,2012-12-06 03:54:00
11:54 PM,27.0,14.0,58,30.23,10.0,NW,4.6,-,N/A,,Partly Cloudy,310,2012-12-06 04:54:00